Previsão horária em Celmes

Hoje, 2 Agosto, Segunda-feira

Tempo Temperatura Precipitação Vento Pressão Humidade
00:00 +19°C° 0.1 mm 1 m/s 659 mmHg 81%
01:00 +19°C° 0 mm 1 m/s 659 mmHg 81%
02:00 +18°C° 0 mm 2 m/s 659 mmHg 80%
03:00 +18°C° 0 mm 1 m/s 659 mmHg 81%
04:00 +19°C° 0 mm 1 m/s 659 mmHg 79%
05:00 +20°C° 0 mm 1 m/s 659 mmHg 78%
06:00 +20°C° 0 mm 1 m/s 659 mmHg 77%
07:00 +21°C° 0.1 mm 1 m/s 660 mmHg 70%
08:00 +23°C° 0.1 mm 1 m/s 660 mmHg 64%
09:00 +24°C° 0.1 mm 1 m/s 660 mmHg 58%
10:00 +25°C° 0.3 mm 1 m/s 660 mmHg 56%
11:00 +25°C° 0.3 mm 1 m/s 661 mmHg 53%
12:00 +26°C° 0.3 mm 1 m/s 661 mmHg 51%
13:00 +26°C° 0.3 mm 1 m/s 660 mmHg 51%
14:00 +26°C° 0.3 mm 1 m/s 660 mmHg 52%
15:00 +26°C° 0.3 mm 2 m/s 660 mmHg 52%
16:00 +25°C° 0.1 mm 1 m/s 660 mmHg 56%
17:00 +24°C° 0.1 mm 1 m/s 660 mmHg 61%
18:00 +23°C° 0.1 mm 1 m/s 660 mmHg 65%
19:00 +22°C° 0 mm 1 m/s 660 mmHg 66%
20:00 +21°C° 0 mm 1 m/s 660 mmHg 67%
21:00 +20°C° 0 mm 1 m/s 660 mmHg 68%
22:00 +19°C° 0 mm 1 m/s 660 mmHg 70%
23:00 +18°C° 0 mm 2 m/s 659 mmHg 71%

Amanhã, 3 Agosto, Terça-feira

Tempo Temperatura Precipitação Vento Pressão Humidade
00:00 +17°C° 0 mm 2 m/s 659 mmHg 72%
01:00 +17°C° 0 mm 2 m/s 659 mmHg 71%
02:00 +17°C° 0 mm 2 m/s 659 mmHg 71%
03:00 +17°C° 0 mm 2 m/s 659 mmHg 71%
04:00 +17°C° 0 mm 2 m/s 659 mmHg 70%
05:00 +18°C° 0 mm 2 m/s 660 mmHg 69%
06:00 +18°C° 0 mm 2 m/s 660 mmHg 68%
07:00 +21°C° 0 mm 1 m/s 660 mmHg 62%
08:00 +23°C° 0 mm 1 m/s 661 mmHg 55%
09:00 +25°C° 0 mm 1 m/s 661 mmHg 48%
10:00 +26°C° 0 mm 1 m/s 661 mmHg 46%
11:00 +27°C° 0 mm 1 m/s 661 mmHg 43%
12:00 +28°C° 0 mm 2 m/s 661 mmHg 41%
13:00 +28°C° 0.2 mm 1 m/s 661 mmHg 40%
14:00 +28°C° 0.2 mm 1 m/s 661 mmHg 40%
15:00 +28°C° 0.2 mm 1 m/s 661 mmHg 40%
16:00 +27°C° 0.2 mm 1 m/s 661 mmHg 46%
17:00 +25°C° 0.2 mm 2 m/s 661 mmHg 53%
18:00 +24°C° 0.2 mm 2 m/s 661 mmHg 60%
19:00 +23°C° 0 mm 2 m/s 661 mmHg 62%
20:00 +21°C° 0 mm 2 m/s 661 mmHg 63%
21:00 +19°C° 0 mm 2 m/s 661 mmHg 65%
22:00 +19°C° 0 mm 2 m/s 660 mmHg 65%
23:00 +19°C° 0 mm 2 m/s 660 mmHg 64%

Depois de amanhã, 4 Agosto, Quarta-feira

Tempo Temperatura Precipitação Vento Pressão Humidade
00:00 +18°C° 0 mm 2 m/s 660 mmHg 63%
01:00 +18°C° 0 mm 2 m/s 660 mmHg 63%
02:00 +18°C° 0 mm 2 m/s 660 mmHg 63%
03:00 +18°C° 0 mm 2 m/s 660 mmHg 63%
04:00 +18°C° 0 mm 2 m/s 661 mmHg 64%
05:00 +19°C° 0 mm 2 m/s 661 mmHg 65%
06:00 +20°C° 0 mm 1 m/s 661 mmHg 66%
07:00 +22°C° 0 mm 1 m/s 662 mmHg 58%
08:00 +24°C° 0 mm 1 m/s 662 mmHg 51%
09:00 +26°C° 0 mm 1 m/s 662 mmHg 44%
10:00 +27°C° 0 mm 1 m/s 662 mmHg 41%
11:00 +28°C° 0 mm 1 m/s 662 mmHg 38%
12:00 +29°C° 0 mm 2 m/s 662 mmHg 36%
13:00 +29°C° 0 mm 1 m/s 662 mmHg 37%
14:00 +29°C° 0 mm 1 m/s 662 mmHg 38%
15:00 +29°C° 0 mm 1 m/s 662 mmHg 39%
16:00 +28°C° 0 mm 1 m/s 662 mmHg 44%
17:00 +28°C° 0 mm 1 m/s 662 mmHg 48%
18:00 +25°C° 0 mm 0 m/s 661 mmHg 53%
19:00 +26°C° 0 mm 1 m/s 661 mmHg 54%
20:00 +24°C° 0 mm 1 m/s 662 mmHg 56%
21:00 +23°C° 0 mm 2 m/s 662 mmHg 57%
22:00 +23°C° 0 mm 2 m/s 662 mmHg 58%
23:00 +23°C° 0 mm 2 m/s 661 mmHg 59%

5 Agosto, Quinta-feira

Tempo Temperatura Precipitação Vento Pressão Humidade
00:00 +21°C° 0 mm 2 m/s 661 mmHg 60%
01:00 +21°C° 0 mm 2 m/s 661 mmHg 62%
02:00 +21°C° 0 mm 2 m/s 661 mmHg 63%
03:00 +21°C° 0 mm 1 m/s 661 mmHg 64%
04:00 +21°C° 0.1 mm 1 m/s 661 mmHg 66%
05:00 +21°C° 0.1 mm 1 m/s 661 mmHg 68%
06:00 +21°C° 0.1 mm 1 m/s 661 mmHg 70%
07:00 +23°C° 0.1 mm 1 m/s 662 mmHg 63%
08:00 +25°C° 0.1 mm 1 m/s 662 mmHg 57%
09:00 +27°C° 0.1 mm 1 m/s 662 mmHg 50%
10:00 +28°C° 0.2 mm 1 m/s 662 mmHg 48%
11:00 +29°C° 0.2 mm 1 m/s 662 mmHg 46%
12:00 +29°C° 0.2 mm 2 m/s 662 mmHg 44%
13:00 +29°C° 0.4 mm 2 m/s 662 mmHg 46%
14:00 +29°C° 0.4 mm 2 m/s 662 mmHg 48%
15:00 +29°C° 0.4 mm 2 m/s 661 mmHg 50%
16:00 +27°C° 1.9 mm 2 m/s 661 mmHg 60%
17:00 +25°C° 1.9 mm 2 m/s 661 mmHg 70%
18:00 +23°C° 1.9 mm 2 m/s 661 mmHg 79%
19:00 +21°C° 1.5 mm 2 m/s 661 mmHg 82%
20:00 +20°C° 1.5 mm 2 m/s 661 mmHg 85%
21:00 +19°C° 1.5 mm 2 m/s 662 mmHg 87%
22:00 +19°C° 0 mm 2 m/s 661 mmHg 84%
23:00 +18°C° 0 mm 2 m/s 661 mmHg 81%

6 Agosto, Sexta-feira

Tempo Temperatura Precipitação Vento Pressão Humidade
00:00 +18°C° 0 mm 2 m/s 660 mmHg 78%
01:00 +18°C° 0 mm 2 m/s 660 mmHg 77%
02:00 +18°C° 0 mm 2 m/s 660 mmHg 75%
03:00 +18°C° 0 mm 2 m/s 660 mmHg 73%
04:00 +18°C° 0 mm 2 m/s 660 mmHg 73%
05:00 +19°C° 0 mm 2 m/s 660 mmHg 72%
06:00 +19°C° 0 mm 2 m/s 660 mmHg 71%
07:00 +22°C° 0 mm 1 m/s 660 mmHg 63%
08:00 +25°C° 0 mm 1 m/s 660 mmHg 55%
09:00 +25°C° 0 mm 0 m/s 661 mmHg 48%
10:00 +28°C° 0 mm 1 m/s 661 mmHg 45%
11:00 +29°C° 0 mm 1 m/s 661 mmHg 43%
12:00 +30°C° 0 mm 2 m/s 661 mmHg 40%
13:00 +30°C° 0 mm 2 m/s 660 mmHg 40%
14:00 +30°C° 0 mm 2 m/s 660 mmHg 40%
15:00 +31°C° 0 mm 2 m/s 660 mmHg 40%
16:00 +30°C° 0 mm 2 m/s 660 mmHg 47%
17:00 +29°C° 0 mm 2 m/s 659 mmHg 53%
18:00 +28°C° 0 mm 2 m/s 659 mmHg 59%
19:00 +26°C° 0 mm 2 m/s 659 mmHg 62%
20:00 +24°C° 0 mm 1 m/s 659 mmHg 64%
21:00 +22°C° 0 mm 1 m/s 659 mmHg 66%
22:00 +21°C° 0 mm 2 m/s 659 mmHg 64%
23:00 +21°C° 0 mm 2 m/s 658 mmHg 63%

7 Agosto, Sábado

Tempo Temperatura Precipitação Vento Pressão Humidade
00:00 +20°C° 0 mm 2 m/s 658 mmHg 61%
01:00 +20°C° 0 mm 2 m/s 658 mmHg 59%
02:00 +20°C° 0 mm 2 m/s 658 mmHg 57%
03:00 +19°C° 0 mm 2 m/s 658 mmHg 55%
04:00 +20°C° 0 mm 2 m/s 658 mmHg 56%
05:00 +20°C° 0 mm 2 m/s 658 mmHg 57%
06:00 +20°C° 0 mm 2 m/s 658 mmHg 58%
07:00 +23°C° 0 mm 2 m/s 658 mmHg 52%
08:00 +25°C° 0 mm 1 m/s 659 mmHg 46%
09:00 +28°C° 0 mm 1 m/s 659 mmHg 40%
10:00 +29°C° 0 mm 1 m/s 659 mmHg 39%
11:00 +30°C° 0 mm 1 m/s 659 mmHg 38%
12:00 +31°C° 0 mm 2 m/s 659 mmHg 37%
13:00 +31°C° 0 mm 2 m/s 659 mmHg 37%
14:00 +31°C° 0 mm 2 m/s 659 mmHg 37%
15:00 +32°C° 0 mm 2 m/s 659 mmHg 37%
16:00 +31°C° 0 mm 2 m/s 658 mmHg 43%
17:00 +29°C° 0 mm 1 m/s 658 mmHg 49%
18:00 +28°C° 0 mm 1 m/s 658 mmHg 55%
19:00 +26°C° 0.4 mm 2 m/s 658 mmHg 58%
20:00 +24°C° 0.4 mm 2 m/s 658 mmHg 62%
21:00 +21°C° 0.4 mm 2 m/s 659 mmHg 65%
22:00 +21°C° 0.1 mm 2 m/s 659 mmHg 64%
23:00 +21°C° 0.1 mm 2 m/s 659 mmHg 64%
Mostrar mais

Necessitamos do seu Consentimento

A Meteoprog e os seus Fornecedores de Serviços podem armazenar e aceder a dados pessoais como cookies, identificadores do dispositivo ou outras tecnologias semelhantes existentes no seu dispositivo e processar estes dados para personalizar conteúdos e anúncios, assim como funcionalidades nas redes sociais e análise de tráfego.

  • Armazenar e/ou aceder a informações no seu dispositivo

    Os cookies, identificadores do dispositivo ou outras informações podem ser armazenados ou acedidos no seu dispositivo, para os fins acima indicados.

  • Anúncios e conteúdos personalizados, medição de anúncios e conteúdos, dados sobre o público-alvo e desenvolvimento de produtos

    Os anúncios e os conteúdos podem ser personalizados com base num perfil. Podem ser adicionados dados adicionais para uma maior personalização dos anúncios e dos conteúdos. A eficácia dos anúncios e dos conteúdos pode ser medida. Podem ser obtidas informações sobre o público que visualizou os anúncios e os conteúdos. Estes dados podem ser usados para desenvolver ou melhorar sistemas, softwares ou a experiência do utilizador.

Ao clicar em "Eu concordo”, permitirá o uso de cookies, identificadores do dispositivo e web beacons mencionados ou outras tecnologias semelhantes. As configurações do navegador do seu dispositivo podem ser alteradas.

Para certos fins, podem ser invocados interesses legítimos ao invés de consentimento. Pode ler mais informação sobre este assunto na nossa Política de Privacidade e Cookies.